This is the latest recevied weather packets stored in our database for station/object AD8IZ-13. If no packets are shown the sender has not sent any weather packets the latest 10 day(s).
| Time | Temp. | Humidity | Pressure | Rain* | Wind** | Luminosity | Snow |
|---|---|---|---|---|---|---|---|
| 1777838119 | 16.11° C | 47% | 1014.3 hPa | 0 mm | - | 835 W/m² | - |
| 1777837519 | 15.56° C | 47% | 1014.5 hPa | 0 mm | - | 763 W/m² | - |
| 1777836918 | 15.56° C | 46% | 1014.7 hPa | 0 mm | - | 712 W/m² | - |
| 1777836320 | 16.11° C | 46% | 1014.9 hPa | 0 mm | - | 511 W/m² | - |
| 1777835719 | 16.11° C | 46% | 1015 hPa | 0 mm | - | 435 W/m² | - |
| 1777835120 | 16.11° C | 46% | 1015.1 hPa | 0 mm | - | 946 W/m² | - |
| 1777834519 | 15.56° C | 47% | 1015.3 hPa | 0 mm | - | 523 W/m² | - |
| 1777833920 | 15° C | 48% | 1015.5 hPa | 0 mm | - | 509 W/m² | - |
| 1777833319 | 15.56° C | 48% | 1015.6 hPa | 0 mm | - | 701 W/m² | - |
| 1777832717 | 15.56° C | 47% | 1015.6 hPa | 0 mm | - | 736 W/m² | - |
| 1777832118 | 16.11° C | 46% | 1015.8 hPa | 0 mm | - | 576 W/m² | - |
| 1777831518 | 16.11° C | 48% | 1016 hPa | 0 mm | - | 985 W/m² | - |
| 1777830920 | 15.56° C | 48% | 1016.1 hPa | 0 mm | - | 517 W/m² | - |
| 1777830318 | 15.56° C | 48% | 1016.3 hPa | 0 mm | - | 877 W/m² | - |
| 1777829719 | 15° C | 51% | 1016.4 hPa | 0 mm | - | 833 W/m² | - |
| 1777829119 | 15° C | 49% | 1016.4 hPa | 0 mm | - | 389 W/m² | - |
| 1777828519 | 15.56° C | 49% | 1016.5 hPa | 0 mm | - | 411 W/m² | - |
| 1777827919 | 15.56° C | 49% | 1016.7 hPa | 0 mm | - | 846 W/m² | - |
| 1777827321 | 15.56° C | 50% | 1016.8 hPa | 0 mm | - | 738 W/m² | - |
| 1777826719 | 15° C | 51% | 1016.9 hPa | 0 mm | - | 1033 W/m² | - |
| 1777826120 | 15° C | 51% | 1017 hPa | 0 mm | - | 943 W/m² | - |
| 1777825517 | 15° C | 52% | 1017.1 hPa | 0 mm | - | 903 W/m² | - |
| 1777824917 | 15° C | 51% | 1017.3 hPa | 0 mm | - | 889 W/m² | - |
| 1777824317 | 14.44° C | 53% | 1017.4 hPa | 0 mm | - | 862 W/m² | - |
| 1777823720 | 13.89° C | 54% | 1017.5 hPa | 0 mm | - | 838 W/m² | - |
* Rain latest hour (hover to see other rain measurements)
** Current wind speed in m/s (hover to see current wind gust speed)